Погода в Иваньковском

Россия / Ивановская область     56°40′30″N   40°06′35″E
темп.,
°C
ветер,
м/с
пор.,
м/с
влажн.,
%
обл.,
%
осадки,
мм/ч
давл.,
гПа
погр.,
м
15 мая, сб
сб1500:00+13вюв2798100 3.3 1014197
03:00+13вюв31098100 3.4 1012247
06:00+14вюв3798100 3.4 1012216
09:00+18вюв41089100 3.4 1010356
12:00+22ююв697935 1.3 1010908
15:00+19ю6108697 7.2 1009720
18:00+19ююз510840 1.4 1009950
21:00+15ю312935 2.1 1010387
16 мая, вс
вс1600:00+13ю312945 0.0 1011378
03:00+12ююз411972 0.0 1011333
06:00+13ююз411930 0.0 1012440
09:00+18ююз59695 0.0 1013862
12:00+21ююз69543 0.0 10131821
15:00+22ююз510527 0.1 10132353
18:00+17юз5118136 2.3 1013586
21:00+13ююз27955 2.5 1014143
17 мая, пн
пн1700:00+13юз24965 0.0 101588
03:00+12юз1196100 0.0 101610
06:00+14юв11926 0.0 101639
09:00+18юв237450 0.0 1016503
12:00+22юв345626 0.0 1016937
15:00+24юв355335 0.0 10141248
18:00+24вюв376597 0.0 1012426
21:00+18юв3118776 0.0 1012200
18 мая, вт
вт1800:00+15юв3118776 0.0 1012185
03:00+14юв399588 0.0 1011163
06:00+16юв4147837 0.0 1011341
09:00+22юв5145854 0.0 1010626
12:00+25юв6124881 0.0 1009883
15:00+27ююв6134663 0.0 10081884
18:00+24ююв51256100 0.0 10081198
21:00+18ю31388100 0.7 1009369
19 мая, ср
ср1900:00+16юв31195100 0.3 1008269
03:00+16ююв3109384 0.6 1008283
06:00+16юв4109299 0.0 1008365
09:00+17ююв51386100 0.1 1007740
12:00+21ю71268100 1.1 10071503
15:00+19ю7137867 4.4 10061274
18:00+18ю61383100 0.7 10051091
21:00+15ююз7138349 0.8 1006797